Location: Alafon
(8.4500°N, 4.2333°E)
Time: 00:02:37
(UTC+00:00)

deb Explorer IX - Pass Details

Date: 25 July 2021
Orbit: 545 x 1091 km, 38.8° (Epoch: 19 September)

Event Time Altitude Azimuth Distance (km) Brightness Sun altitude
Rises 21:59:47 0° 317° (NW) 3,884 ? -51.1°
Reaches altitude 10° 22:02:39 10° 322° (NW) 2,927 ? -51.6°
Enters shadow 22:03:21 13° 324° (NW) 2,695 ? -51.7°
Maximum altitude 22:09:42 54° 38° (NE) 1,256 - -52.8°
Drops below altitude 10° 22:16:15 10° 114° (ESE) 2,730 - -53.8°
Sets 22:18:50 0° 119° (ESE) 3,606 - -54.2°
